Theta_e
352 344 343 348 349 352 341 349 347 347 345 346 346 348 348 348 347 348 349 344 344 346 347 349 350 350 349 350 350 350 348 347 343 344 345 346 347 347 347 348 347 349 349
348 345 343 350 347 350 343 350 348 345 345 344 346 345 345 345 345 344 346 349 348 348 347 349 349 349 350 346 346 347 346 340 343 343 342 341 344 346 346 346 345 349 348
345 347 345 347 345 351 349 349 346 344 343 343 344 343 343 343 342 342 344 347 348 349 348 346 348 345 345 347 344 344 339 340 346 346 346 344 343 343 344 342 342 348 347
346 346 351 346 348 351 351 349 346 343 341 339 340 339 339 341 341 341 344 345 345 348 351 347 345 344 341 344 346 341 342 346 347 347 348 347 347 346 345 343 341 347 345
345 349 350 346 345 348 349 347 345 341 338 338 339 339 338 340 340 340 341 342 340 346 346 347 347 346 344 342 344 342 344 347 346 346 345 346 346 347 347 346 342 342 344
345 349 348 346 348 349 348 346 344 340 341 340 338 338 337 336 336 335 338 337 337 338 343 345 345 346 345 344 344 341 345 345 346 347 346 345 344 346 344 341 341 340 339
347 349 345 346 349 347 346 344 343 337 342 340 334 336 336 335 334 333 333 335 333 333 337 339 342 345 344 345 345 341 344 344 344 344 343 342 343 344 346 343 340 340 340
346 349 347 346 348 347 346 344 344 341 334 335 330 331 335 334 333 331 331 332 331 330 329 332 331 331 345 347 344 342 343 345 341 342 341 340 340 343 343 341 341 339 340
345 345 347 346 349 347 345 344 344 342 334 329 326 324 332 331 331 327 329 329 327 322 319 322 320 320 333 341 342 342 343 342 340 339 338 339 342 342 341 341 340 342 341
341 340 344 347 346 346 344 342 344 341 334 328 321 317 324 319 319 325 325 323 318 314 314 317 318 318 321 331 339 341 339 340 338 336 334 336 338 338 341 343 341 341 342
337 337 335 345 346 345 343 342 343 340 336 327 319 313 321 324 325 325 324 313 309 308 310 312 314 315 318 318 329 337 332 336 335 333 333 332 334 335 338 339 339 340 342
337 337 336 342 345 344 342 340 337 335 331 319 315 311 322 323 323 322 309 307 305 305 305 306 310 313 315 317 317 320 324 329 329 328 327 328 330 332 334 335 336 336 337
337 337 336 335 343 342 341 338 335 332 326 321 320 314 319 319 320 317 310 311 309 310 310 309 310 310 311 311 313 313 317 320 323 324 322 323 324 327 328 328 329 332 333
337 337 336 335 336 339 340 337 334 329 325 323 320 316 316 317 314 317 313 312 310 310 309 309 309 308 307 308 308 308 310 312 314 316 316 312 318 321 323 323 325 326 329
336 336 337 336 336 335 338 335 333 329 325 320 316 315 316 315 314 313 312 311 310 309 309 309 308 308 307 307 306 307 307 307 308 309 310 307 302 307 316 318 319 320 322
335 335 336 337 336 335 334 335 332 330 324 316 315 314 314 314 314 313 312 311 310 309 309 309 308 308 307 307 306 306 307 306 307 306 307 307 306 304 303 308 312 314 316
332 333 335 336 337 336 334 333 332 330 323 316 315 314 314 315 314 313 312 311 311 310 309 308 307 307 307 307 307 306 306 306 306 305 306 306 306 306 305 304 301 308 312
326 329 332 335 337 337 335 332 331 328 323 317 315 314 313 314 314 313 312 312 311 310 308 308 307 307 307 307 307 307 306 306 306 305 305 305 306 306 306 305 303 301 304
324 324 327 331 336 338 337 334 330 327 323 318 316 314 314 313 313 313 312 312 311 310 308 308 308 308 308 308 307 307 306 306 306 306 305 305 305 304 304 304 305 305 305
320 322 323 325 334 337 337 336 330 326 323 320 317 315 314 313 313 313 312 311 311 310 309 308 308 307 307 308 307 306 305 306 306 306 305 305 305 305 304 304 304 304 306
317 318 319 319 324 332 336 336 332 325 322 320 318 316 314 313 312 312 312 311 311 309 309 308 307 308 307 306 306 306 307 307 306 305 306 305 305 305 304 304 304 304 303
314 315 316 318 318 318 330 335 332 327 323 320 319 317 315 313 312 312 312 311 311 309 309 309 307 307 307 307 305 307 304 307 306 305 305 305 304 304 304 304 304 304 303
313 313 314 315 316 317 317 329 331 327 324 321 319 317 316 314 313 312 312 311 311 309 309 309 308 307 307 306 305 305 304 303 305 306 305 305 304 304 304 304 304 303 303
311 312 313 313 314 316 315 316 326 328 324 322 320 318 317 315 313 312 311 311 310 309 309 308 308 307 308 307 305 304 304 304 301 301 305 305 305 304 303 303 303 303 302
310 312 311 311 314 315 316 315 316 321 327 324 321 319 317 315 314 312 311 311 310 309 309 309 308 307 307 307 306 305 303 304 304 302 301 304 305 304 303 302 302 302 303
310 311 311 311 312 313 315 315 314 316 321 325 323 320 317 315 313 312 311 310 310 309 309 308 308 307 307 305 306 306 305 304 304 303 300 301 301 302 302 302 302 302 302
Wind_Speed
12 12 11 9 7 8 8 9 10 10 7 9 10 13 13 14 15 15 15 12 11 10 9 12 13 13 12 12 11 11 10 10 11 12 13 14 15 15 15 15 13 16 15
15 10 12 10 9 8 9 10 10 10 7 7 9 10 9 10 12 11 13 16 13 12 10 11 12 12 12 12 11 11 10 11 11 12 13 14 14 14 14 14 13 14 13
15 12 11 10 10 10 10 11 10 8 6 6 7 8 8 7 7 7 9 11 13 14 10 10 10 11 11 10 11 11 12 12 11 9 8 13 13 12 12 12 12 12 11
15 10 12 11 12 10 11 12 11 7 6 10 10 11 12 12 12 12 12 10 10 12 15 11 10 9 10 9 10 11 14 13 13 15 19 15 13 12 11 9 10 9 9
14 16 14 12 11 12 12 12 10 7 10 11 11 11 12 12 12 13 12 12 11 11 10 12 11 11 8 9 8 11 12 12 11 12 13 15 14 12 9 8 7 7 7
14 13 12 12 12 13 11 11 11 11 11 11 11 10 11 11 12 11 10 10 11 10 10 10 9 9 8 8 7 10 11 13 13 13 14 11 13 10 8 5 5 4 4
16 14 12 15 15 13 11 12 13 11 12 11 10 10 10 10 10 10 10 9 10 11 11 10 9 9 9 7 7 9 11 10 9 10 11 9 10 9 7 5 3 2 2
17 13 12 16 15 14 13 14 13 13 11 11 10 9 10 9 9 9 9 9 9 9 9 9 7 7 9 10 5 7 8 10 3 7 6 7 7 7 6 5 3 2 1
15 13 15 14 14 14 13 15 14 13 12 11 9 8 9 9 8 7 8 7 7 7 6 7 7 7 7 6 6 7 8 9 4 2 3 7 10 7 5 3 3 3 1
15 17 18 20 18 13 14 16 16 14 13 11 9 9 9 8 9 8 7 6 6 5 5 6 7 8 8 6 5 7 8 7 3 2 3 6 4 4 10 9 5 3 4
17 18 17 23 21 18 17 18 16 14 13 12 11 8 9 7 8 7 6 5 6 6 5 5 7 8 9 9 6 8 6 5 3 2 4 5 5 4 9 7 7 7 9
18 18 19 22 22 23 21 19 17 16 17 14 12 12 11 10 10 6 4 5 7 9 9 8 8 7 5 4 4 6 5 5 4 1 2 4 8 7 9 9 6 6 9
20 21 20 20 24 24 25 25 19 18 15 14 12 13 13 15 14 9 4 5 6 7 6 5 3 4 6 4 5 3 6 5 2 4 3 2 5 7 8 8 6 3 6
24 25 24 24 24 25 27 25 20 24 19 20 19 14 19 17 13 11 4 6 5 5 5 6 1 5 6 6 4 4 3 5 3 3 3 3 1 6 7 7 4 3 1
22 24 27 25 23 27 26 27 21 26 24 22 21 20 21 16 15 13 14 9 8 8 6 4 4 3 4 5 5 4 4 5 5 1 4 4 3 0 4 6 6 6 4
20 22 28 29 28 23 28 28 28 24 24 23 24 24 22 20 18 18 15 13 11 10 9 6 6 7 4 3 2 3 4 2 4 4 2 3 3 4 3 3 5 6 6
25 24 27 31 31 29 27 29 29 28 25 25 27 26 25 22 21 20 18 16 13 13 9 10 9 7 7 6 4 4 3 5 4 3 4 1 1 3 5 4 4 4 5
23 23 22 30 34 33 29 27 29 31 27 27 25 27 26 25 23 21 20 18 16 14 15 13 11 9 8 7 7 8 6 6 6 7 7 7 6 2 4 7 7 5 4
25 22 24 21 31 32 30 26 27 29 29 28 27 28 28 29 27 25 23 21 21 19 16 15 13 11 9 8 8 7 8 9 7 10 10 7 6 6 5 6 5 6 7
32 15 18 18 23 32 30 28 26 29 31 31 31 29 30 32 31 28 26 24 23 20 18 17 15 13 11 9 9 9 9 11 10 12 11 11 9 9 8 6 7 5 5
45 42 41 40 18 19 28 29 26 28 30 29 31 30 31 34 33 31 29 26 25 24 22 20 17 15 14 11 6 9 13 12 12 10 12 10 9 12 7 6 7 6 8
36 39 41 39 39 37 17 31 31 32 31 31 31 31 33 35 37 36 32 30 29 25 22 22 20 18 15 14 6 3 2 5 13 12 14 12 7 7 6 8 8 7 9
32 35 37 38 37 36 36 19 29 27 28 29 32 36 37 37 37 37 35 33 31 29 27 26 24 21 18 15 14 6 0 3 3 11 13 10 9 7 8 6 11 11 10
29 27 29 31 33 35 39 32 21 29 26 30 35 38 37 37 36 38 36 34 32 31 29 29 26 25 19 18 14 14 8 1 2 2 6 11 6 8 8 12 10 9 12
30 26 27 30 26 29 33 38 32 26 30 31 32 35 35 37 37 38 37 35 34 34 30 30 28 26 25 17 18 12 11 7 5 3 3 4 4 8 6 10 15 16 14
28 25 24 28 28 29 30 29 36 32 27 28 29 31 33 36 38 38 40 38 37 35 34 31 29 27 23 22 14 15 14 6 9 6 3 5 5 9 11 12 12 12 16
Wind_Direction
145 149 144 131 118 121 112 105 95 89 87 82 79 73 72 68 68 63 60 62 68 65 65 68 65 65 68 73 71 72 75 81 86 88 91 96 93 86 86 91 84 90 86
152 155 150 138 126 126 121 116 105 96 98 91 81 78 78 81 63 56 59 60 62 66 71 68 66 67 72 67 71 71 78 88 94 91 92 95 90 83 82 91 87 85 80
148 162 153 143 137 136 132 126 122 127 114 97 97 82 81 81 72 64 60 60 62 64 67 73 72 66 73 72 68 73 80 87 86 86 93 87 87 82 82 85 81 82 82
151 150 168 149 150 143 138 136 134 138 123 105 97 89 81 76 75 73 72 74 66 64 63 71 70 70 73 77 77 78 87 72 63 78 97 89 77 74 83 87 87 85 83
156 157 165 152 157 155 148 146 146 140 121 106 99 95 87 84 79 74 75 74 68 70 75 75 74 73 75 77 84 87 88 68 57 71 81 82 71 71 81 88 87 86 93
160 165 167 160 164 163 158 155 153 140 128 119 111 105 97 90 83 75 77 74 70 79 72 71 70 72 76 86 90 95 80 66 79 76 77 71 72 62 70 80 83 73 70
165 165 169 168 174 176 174 162 155 150 139 134 122 116 107 99 92 84 75 70 68 73 77 75 73 69 83 104 109 105 94 73 81 74 64 40 64 54 68 63 75 59 39
165 166 172 175 185 182 177 166 160 155 150 147 137 129 122 111 100 93 87 81 74 65 69 71 77 86 88 99 94 113 99 95 77 73 60 34 27 41 43 65 57 42 13
173 175 168 180 188 194 186 177 173 170 164 161 153 143 138 126 116 104 100 93 81 73 68 66 62 73 96 124 101 115 114 83 65 84 49 52 55 44 12 21 58 56 31
188 181 186 175 182 196 194 185 184 177 175 173 172 159 151 136 123 108 94 100 94 78 77 77 73 70 72 82 108 120 103 80 76 183 135 84 25 24 46 56 70 57 62
194 195 204 180 178 189 196 195 189 183 182 183 182 171 144 111 122 144 177 121 93 85 82 81 83 78 69 51 84 111 90 116 89 103 89 104 62 48 55 67 70 66 64
196 205 203 190 186 185 191 194 195 198 197 196 194 177 139 158 167 186 139 120 104 92 82 84 89 78 62 61 71 101 98 113 76 102 41 89 60 63 63 69 73 61 57
206 203 210 214 190 184 190 193 192 205 206 201 195 182 158 191 189 208 144 119 104 95 84 73 105 138 128 104 108 78 122 129 161 260 309 299 84 65 66 63 75 53 41
206 202 202 216 207 196 193 193 195 200 205 203 196 191 192 200 178 192 164 159 167 147 161 146 184 90 90 106 114 112 151 141 77 263 300 333 194 76 67 56 51 54 324
217 203 200 210 222 203 201 196 194 205 196 201 202 196 200 196 184 188 187 197 164 178 168 180 148 137 150 164 156 143 130 151 153 255 295 316 350 277 68 56 49 51 34
240 214 203 205 216 215 208 205 199 210 204 203 206 199 203 196 190 191 192 185 189 172 185 177 182 183 181 188 223 184 172 176 197 198 281 323 6 15 23 51 48 51 52
239 240 213 202 204 218 217 212 206 207 210 207 209 202 202 203 194 198 193 197 190 187 180 179 185 188 203 203 209 199 243 194 202 226 190 282 336 337 357 11 12 44 48
248 244 242 209 203 206 219 219 213 205 213 212 214 204 207 204 200 198 193 197 188 187 190 194 193 190 199 209 223 231 226 246 205 217 228 201 214 226 324 345 346 353 9
226 240 244 238 202 200 210 223 216 204 211 213 216 210 208 208 203 200 197 195 193 196 195 192 195 200 208 216 230 234 237 233 227 224 227 239 266 265 266 260 321 339 339
10 232 243 253 215 204 208 215 221 211 212 213 215 214 210 208 207 202 201 198 199 198 194 194 200 205 205 218 225 250 240 235 235 225 230 250 240 247 296 300 311 338 322
21 13 10 13 315 228 207 206 217 212 212 214 215 218 214 210 212 204 205 199 203 202 198 199 195 200 207 211 235 255 243 236 239 224 228 232 245 241 270 295 299 304 296
14 10 4 359 355 349 280 209 210 216 217 220 218 220 221 214 214 207 205 200 201 200 198 200 197 198 207 203 197 205 300 210 225 227 219 214 232 242 246 280 277 283 294
10 6 356 349 346 346 340 278 214 221 220 214 217 220 221 217 213 211 205 202 203 203 199 202 200 199 196 199 210 202 144 219 172 206 207 216 209 247 277 263 285 292 295
353 358 353 344 339 337 337 338 296 217 214 212 216 219 220 217 212 211 208 205 203 205 204 205 205 205 197 197 196 223 244 214 159 345 198 199 235 243 273 294 291 294 299
349 349 345 335 330 331 330 327 325 308 235 225 218 218 219 216 213 210 208 204 203 206 205 204 204 206 207 202 191 195 212 213 224 150 262 290 257 283 292 303 298 298 295
335 336 341 330 331 326 319 320 317 314 290 231 226 214 214 212 212 211 207 207 203 205 201 203 203 203 203 207 210 193 191 173 208 211 205 249 262 296 298 297 289 296 294